User: anonymous   Login
Location: Mt. Graham
(32.7020°N, 109.8880°W)
Time: 01:06:54
(UTC-07:00)
Language:

NOAA 19 - Orbit

View from above orbital plane
View from above orbital plane
View from above satellite
View from above satellite

Ground track
Ground track

The orbit data is extracted from the following two-line orbital elements,

1 33591U 09005A   24141.82693966  .00000484  00000-0  28357-3 0  9990
2 33591  99.0486 197.3345 0013878  14.0975 346.0581 14.13007727787768
Epoch (UTC): 20 May 2024 19:50:47
Eccentricity: 0.0013878
inclination: 99.0486°
perigee height: 839 km
apogee height: 859 km
right ascension of ascending node: 197.3345°
argument of perigee: 14.0975°
revolutions per day: 14.13007727
mean anomaly at epoch: 346.0581°
orbit number at epoch: 78776

The dashed part of the orbit path shows where the satellite is in the earth's shadow,  

DLR